Time,TemperatureF,DewpointF,PressureIn,WindDirection,WindDirectionDegrees,WindSpeedMPH,WindSpeedGustMPH,Humidity,HourlyPrecipIn,Conditions,Clouds,dailyrainin,SoftwareType,DateUTC
2013-02-06 00:01:00,43.0,42.0,29.92,SW,233,2.0,8.0,95,0.00,,,0.29,,2013-02-06 05:01:00,
2013-02-06 00:12:00,43.0,42.0,29.92,SW,233,2.0,8.0,95,0.00,,,0.29,,2013-02-06 05:12:00,
2013-02-06 00:22:00,43.0,42.0,29.92,SW,229,2.0,6.0,95,0.01,,,0.30,,2013-02-06 05:22:00,
2013-02-06 00:31:00,43.0,42.0,29.92,SW,229,2.0,6.0,95,0.01,,,0.30,,2013-02-06 05:31:00,
2013-02-06 00:42:00,43.0,42.0,29.92,SW,229,2.0,6.0,95,0.01,,,0.30,,2013-02-06 05:42:00,
2013-02-06 00:53:00,43.0,42.0,29.93,SE,146,2.0,7.0,95,0.01,,,0.30,,2013-02-06 05:53:00,
2013-02-06 01:01:00,43.0,42.0,29.93,SE,146,2.0,7.0,95,0.01,,,0.30,,2013-02-06 06:01:00,
2013-02-06 01:11:00,43.0,42.0,29.93,SE,146,2.0,7.0,95,0.01,,,0.30,,2013-02-06 06:11:00,
2013-02-06 01:21:00,43.0,41.0,29.94,SSE,164,1.0,7.0,94,0.00,,,0.29,,2013-02-06 06:21:00,
2013-02-06 01:31:00,43.0,41.0,29.94,SSE,164,1.0,7.0,94,0.00,,,0.29,,2013-02-06 06:31:00,
2013-02-06 01:42:00,43.0,41.0,29.94,SSE,164,1.0,7.0,94,0.00,,,0.29,,2013-02-06 06:42:00,
2013-02-06 01:52:00,43.0,42.0,29.94,NE,47,1.0,2.0,95,0.00,,,0.29,,2013-02-06 06:52:00,
2013-02-06 02:01:00,43.0,42.0,29.94,NE,47,1.0,2.0,95,0.00,,,0.29,,2013-02-06 07:01:00,
2013-02-06 02:11:00,43.0,42.0,29.94,NE,47,1.0,2.0,95,0.00,,,0.29,,2013-02-06 07:11:00,
2013-02-06 02:21:00,42.0,41.0,29.95,South,180,1.0,6.0,95,0.00,,,0.29,,2013-02-06 07:21:00,
2013-02-06 02:32:00,42.0,41.0,29.95,South,180,1.0,6.0,95,0.00,,,0.29,,2013-02-06 07:32:00,
2013-02-06 02:42:00,42.0,41.0,29.95,South,180,1.0,6.0,95,0.00,,,0.29,,2013-02-06 07:42:00,
2013-02-06 02:52:00,43.0,41.0,29.96,East,83,0.0,5.0,94,0.00,,,0.29,,2013-02-06 07:52:00,
2013-02-06 03:01:00,43.0,41.0,29.96,East,83,0.0,5.0,94,0.00,,,0.29,,2013-02-06 08:01:00,
2013-02-06 03:11:00,43.0,41.0,29.96,East,83,0.0,5.0,94,0.00,,,0.29,,2013-02-06 08:11:00,
2013-02-06 03:21:00,43.0,41.0,29.97,SW,215,4.0,6.0,94,0.00,,,0.29,,2013-02-06 08:21:00,
2013-02-06 03:31:00,43.0,41.0,29.97,SW,215,4.0,6.0,94,0.00,,,0.29,,2013-02-06 08:31:00,
2013-02-06 03:42:00,43.0,41.0,29.97,SW,215,4.0,6.0,94,0.00,,,0.29,,2013-02-06 08:42:00,
2013-02-06 03:53:00,43.0,41.0,29.98,NNE,17,3.0,6.0,93,0.00,,,0.29,,2013-02-06 08:53:00,
2013-02-06 04:01:00,43.0,41.0,29.98,NNE,17,3.0,6.0,93,0.00,,,0.29,,2013-02-06 09:01:00,
2013-02-06 04:11:00,43.0,41.0,29.98,NNE,17,3.0,6.0,93,0.00,,,0.29,,2013-02-06 09:11:00,
2013-02-06 04:21:00,43.0,41.0,29.98,SW,235,1.0,4.0,92,0.00,,,0.29,,2013-02-06 09:21:00,
2013-02-06 04:31:00,43.0,41.0,29.98,SW,235,1.0,4.0,92,0.00,,,0.29,,2013-02-06 09:31:00,
2013-02-06 04:42:00,43.0,41.0,29.98,SW,235,1.0,4.0,92,0.00,,,0.29,,2013-02-06 09:42:00,
2013-02-06 04:52:00,43.0,41.0,29.99,SW,215,3.0,7.0,91,0.00,,,0.29,,2013-02-06 09:52:00,
2013-02-06 05:01:00,43.0,41.0,29.99,SW,215,3.0,7.0,91,0.00,,,0.29,,2013-02-06 10:01:00,
2013-02-06 05:11:00,43.0,41.0,29.99,SW,215,3.0,7.0,91,0.00,,,0.29,,2013-02-06 10:11:00,
2013-02-06 05:21:00,43.0,41.0,29.99,SSW,209,4.0,6.0,91,0.01,,,0.30,,2013-02-06 10:21:00,
2013-02-06 05:31:00,43.0,41.0,29.99,SSW,209,4.0,6.0,91,0.01,,,0.30,,2013-02-06 10:31:00,
2013-02-06 05:42:00,43.0,41.0,29.99,SSW,209,4.0,6.0,91,0.01,,,0.30,,2013-02-06 10:42:00,
2013-02-06 05:52:00,43.0,40.0,30.00,SW,227,2.0,7.0,90,0.01,,,0.30,,2013-02-06 10:52:00,
2013-02-06 06:01:00,43.0,40.0,30.00,SW,227,2.0,7.0,90,0.01,,,0.30,,2013-02-06 11:01:00,
2013-02-06 06:11:00,43.0,40.0,30.00,SW,227,2.0,7.0,90,0.01,,,0.30,,2013-02-06 11:11:00,
2013-02-06 06:21:00,43.0,40.0,30.00,SSE,157,2.0,6.0,90,0.00,,,0.30,,2013-02-06 11:21:00,
2013-02-06 06:31:00,43.0,40.0,30.00,SSE,157,2.0,6.0,90,0.00,,,0.30,,2013-02-06 11:31:00,
2013-02-06 06:42:00,43.0,40.0,30.00,SSE,157,2.0,6.0,90,0.00,,,0.30,,2013-02-06 11:42:00,
2013-02-06 06:52:00,43.0,40.0,30.01,East,97,1.0,6.0,90,0.00,,,0.30,,2013-02-06 11:52:00,
2013-02-06 07:01:00,43.0,40.0,30.01,East,97,1.0,6.0,90,0.00,,,0.30,,2013-02-06 12:01:00,
2013-02-06 07:12:00,43.0,40.0,30.01,East,97,1.0,6.0,90,0.00,,,0.30,,2013-02-06 12:12:00,
2013-02-06 07:21:00,43.0,40.0,30.02,WSW,244,2.0,7.0,90,0.00,,,0.30,,2013-02-06 12:21:00,
2013-02-06 07:32:00,43.0,40.0,30.02,WSW,244,2.0,7.0,90,0.00,,,0.30,,2013-02-06 12:32:00,
2013-02-06 07:42:00,43.0,40.0,30.02,WSW,244,2.0,7.0,90,0.00,,,0.30,,2013-02-06 12:42:00,
2013-02-06 07:52:00,43.0,41.0,30.02,ENE,74,0.0,6.0,92,0.01,,,0.31,,2013-02-06 12:52:00,
2013-02-06 08:01:00,43.0,41.0,30.02,ENE,74,0.0,6.0,92,0.01,,,0.31,,2013-02-06 13:01:00,
2013-02-06 08:11:00,43.0,41.0,30.02,ENE,74,0.0,6.0,92,0.01,,,0.31,,2013-02-06 13:11:00,
2013-02-06 08:21:00,42.0,40.0,30.03,East,95,0.0,4.0,93,0.01,,,0.28,,2013-02-06 13:21:00,
2013-02-06 08:31:00,42.0,40.0,30.03,East,95,0.0,4.0,93,0.01,,,0.28,,2013-02-06 13:31:00,
2013-02-06 08:42:00,42.0,40.0,30.03,East,95,0.0,4.0,93,0.01,,,0.28,,2013-02-06 13:42:00,
2013-02-06 08:52:00,42.0,40.0,30.04,WSW,237,0.0,5.0,94,0.01,,,0.29,,2013-02-06 13:52:00,
2013-02-06 09:01:00,42.0,40.0,30.04,WSW,237,0.0,5.0,94,0.01,,,0.29,,2013-02-06 14:01:00,
2013-02-06 09:11:00,42.0,40.0,30.04,WSW,237,0.0,5.0,94,0.01,,,0.29,,2013-02-06 14:11:00,
2013-02-06 09:21:00,42.0,40.0,30.04,SSE,165,0.0,1.0,94,0.01,,,0.23,,2013-02-06 14:21:00,
2013-02-06 09:31:00,42.0,40.0,30.04,SSE,165,0.0,1.0,94,0.01,,,0.23,,2013-02-06 14:31:00,
2013-02-06 09:42:00,42.0,40.0,30.04,SSE,165,0.0,1.0,94,0.01,,,0.23,,2013-02-06 14:42:00,
2013-02-06 09:52:00,42.0,41.0,30.05,SW,223,1.0,4.0,95,0.01,,,0.24,,2013-02-06 14:52:00,
2013-02-06 10:01:00,42.0,41.0,30.05,SW,223,1.0,4.0,95,0.01,,,0.24,,2013-02-06 15:01:00,
2013-02-06 10:11:00,42.0,41.0,30.06,SSW,210,0.0,2.0,95,0.03,,,0.25,,2013-02-06 15:11:00,
2013-02-06 10:21:00,42.0,41.0,30.06,SSW,210,0.0,2.0,95,0.03,,,0.25,,2013-02-06 15:21:00,
2013-02-06 10:31:00,42.0,41.0,30.06,SSW,210,0.0,2.0,95,0.03,,,0.25,,2013-02-06 15:31:00,
2013-02-06 10:42:00,42.0,41.0,30.06,SSW,210,0.0,2.0,95,0.03,,,0.25,,2013-02-06 15:42:00,
2013-02-06 10:52:00,42.0,41.0,30.06,SW,229,0.0,0.0,95,0.02,,,0.25,,2013-02-06 15:52:00,
2013-02-06 11:01:00,42.0,41.0,30.06,SW,229,0.0,0.0,95,0.02,,,0.25,,2013-02-06 16:01:00,
2013-02-06 11:11:00,42.0,41.0,30.06,SW,229,0.0,0.0,95,0.02,,,0.25,,2013-02-06 16:11:00,
2013-02-06 11:21:00,42.0,41.0,30.07,SW,229,0.0,0.0,96,0.00,,,0.25,,2013-02-06 16:21:00,
2013-02-06 11:31:00,42.0,41.0,30.07,SW,229,0.0,0.0,96,0.00,,,0.25,,2013-02-06 16:31:00,
2013-02-06 11:42:00,42.0,41.0,30.07,SW,229,0.0,0.0,96,0.00,,,0.25,,2013-02-06 16:42:00,
2013-02-06 11:52:00,42.0,41.0,30.07,SW,229,0.0,0.0,96,0.00,,,0.25,,2013-02-06 16:52:00,
2013-02-06 12:01:00,42.0,41.0,30.07,SW,229,0.0,0.0,96,0.00,,,0.25,,2013-02-06 17:01:00,
2013-02-06 12:11:00,42.0,41.0,30.07,SW,229,0.0,0.0,96,0.00,,,0.25,,2013-02-06 17:11:00,
2013-02-06 12:21:00,42.0,41.0,30.06,SW,230,0.0,3.0,96,0.00,,,0.25,,2013-02-06 17:21:00,
2013-02-06 12:32:00,42.0,41.0,30.06,SW,230,0.0,3.0,96,0.00,,,0.25,,2013-02-06 17:32:00,
2013-02-06 12:42:00,43.0,42.0,30.06,SW,230,0.0,0.0,96,0.00,,,0.25,,2013-02-06 17:42:00,
2013-02-06 12:52:00,43.0,42.0,30.06,SW,230,0.0,0.0,96,0.00,,,0.25,,2013-02-06 17:52:00,
2013-02-06 13:01:00,43.0,42.0,30.06,SW,230,0.0,0.0,96,0.00,,,0.25,,2013-02-06 18:01:00,
2013-02-06 13:11:00,43.0,42.0,30.05,WNW,296,0.0,1.0,95,0.00,,,0.25,,2013-02-06 18:11:00,
2013-02-06 13:22:00,43.0,42.0,30.05,WNW,296,0.0,1.0,95,0.00,,,0.25,,2013-02-06 18:22:00,
2013-02-06 13:32:00,43.0,42.0,30.05,WNW,296,0.0,1.0,95,0.00,,,0.25,,2013-02-06 18:32:00,
2013-02-06 13:42:00,43.0,42.0,30.05,WNW,296,0.0,1.0,95,0.00,,,0.25,,2013-02-06 18:42:00,
2013-02-06 13:52:00,45.0,43.0,30.05,WNW,296,0.0,0.0,93,0.00,,,0.25,,2013-02-06 18:52:00,
2013-02-06 14:01:00,45.0,43.0,30.05,WNW,296,0.0,0.0,93,0.00,,,0.25,,2013-02-06 19:01:00,
2013-02-06 14:11:00,45.0,43.0,30.05,WNW,296,0.0,0.0,93,0.00,,,0.25,,2013-02-06 19:11:00,
2013-02-06 14:21:00,46.0,42.0,30.04,NW,322,0.0,3.0,87,0.00,,,0.25,,2013-02-06 19:21:00,
2013-02-06 14:31:00,46.0,42.0,30.04,NW,322,0.0,3.0,87,0.00,,,0.25,,2013-02-06 19:31:00,
2013-02-06 14:42:00,46.0,42.0,30.04,NW,322,0.0,3.0,87,0.00,,,0.25,,2013-02-06 19:42:00,
2013-02-06 14:52:00,48.0,42.0,30.04,WSW,244,2.0,5.0,80,0.00,,,0.25,,2013-02-06 19:52:00,
2013-02-06 15:01:00,48.0,42.0,30.04,WSW,244,2.0,5.0,80,0.00,,,0.25,,2013-02-06 20:01:00,
2013-02-06 15:11:00,49.0,41.0,30.02,SSW,200,1.0,5.0,73,0.00,,,0.24,,2013-02-06 20:11:00,
2013-02-06 15:21:00,49.0,41.0,30.02,SSW,200,1.0,5.0,73,0.00,,,0.24,,2013-02-06 20:21:00,
2013-02-06 15:31:00,49.0,41.0,30.02,SSW,200,1.0,5.0,73,0.00,,,0.24,,2013-02-06 20:31:00,
2013-02-06 15:42:00,49.0,41.0,30.02,SSW,200,1.0,5.0,73,0.00,,,0.24,,2013-02-06 20:42:00,
2013-02-06 15:52:00,50.0,41.0,30.01,SSW,202,3.0,7.0,71,0.00,,,0.24,,2013-02-06 20:52:00,
2013-02-06 16:01:00,50.0,41.0,30.01,SSW,202,3.0,7.0,71,0.00,,,0.24,,2013-02-06 21:01:00,
2013-02-06 16:11:00,50.0,41.0,30.01,SSW,202,3.0,7.0,71,0.00,,,0.24,,2013-02-06 21:11:00,
2013-02-06 16:21:00,50.0,41.0,30.00,SSE,161,2.0,9.0,71,0.00,,,0.21,,2013-02-06 21:21:00,
2013-02-06 16:31:00,50.0,41.0,30.00,SSE,161,2.0,9.0,71,0.00,,,0.21,,2013-02-06 21:31:00,
2013-02-06 16:42:00,50.0,41.0,30.00,SSE,161,2.0,9.0,71,0.00,,,0.21,,2013-02-06 21:42:00,
2013-02-06 16:52:00,50.0,41.0,29.99,SSW,208,2.0,6.0,70,0.00,,,0.21,,2013-02-06 21:52:00,
2013-02-06 17:01:00,50.0,41.0,29.99,SSW,208,2.0,6.0,70,0.00,,,0.21,,2013-02-06 22:01:00,
2013-02-06 17:11:00,50.0,41.0,29.99,SSW,208,2.0,6.0,70,0.00,,,0.21,,2013-02-06 22:11:00,
2013-02-06 17:21:00,50.0,41.0,29.98,SE,136,1.0,7.0,70,0.00,,,0.21,,2013-02-06 22:21:00,
2013-02-06 17:31:00,50.0,41.0,29.98,SE,136,1.0,7.0,70,0.00,,,0.21,,2013-02-06 22:31:00,
2013-02-06 17:42:00,50.0,41.0,29.98,SE,136,1.0,7.0,70,0.00,,,0.21,,2013-02-06 22:42:00,
2013-02-06 17:52:00,49.0,40.0,29.97,South,183,1.0,10.0,72,0.00,,,0.21,,2013-02-06 22:52:00,
2013-02-06 18:01:00,49.0,40.0,29.97,South,183,1.0,10.0,72,0.00,,,0.21,,2013-02-06 23:01:00,
2013-02-06 18:11:00,49.0,40.0,29.97,South,183,1.0,10.0,72,0.00,,,0.21,,2013-02-06 23:11:00,
2013-02-06 18:21:00,49.0,41.0,29.97,SSW,192,0.0,7.0,74,0.00,,,0.20,,2013-02-06 23:21:00,
2013-02-06 18:31:00,49.0,41.0,29.97,SSW,192,0.0,7.0,74,0.00,,,0.20,,2013-02-06 23:31:00,
2013-02-06 18:42:00,49.0,41.0,29.97,SSW,192,0.0,7.0,74,0.00,,,0.20,,2013-02-06 23:42:00,
2013-02-06 18:52:00,48.0,43.0,29.98,SE,146,0.0,4.0,82,0.00,,,0.20,,2013-02-06 23:52:00,
2013-02-06 19:01:00,48.0,43.0,29.98,SE,146,0.0,4.0,82,0.00,,,0.20,,2013-02-07 00:01:00,
2013-02-06 19:11:00,48.0,43.0,29.98,SE,146,0.0,4.0,82,0.00,,,0.20,,2013-02-07 00:11:00,
2013-02-06 19:21:00,47.0,43.0,29.95,SE,146,0.0,0.0,86,0.01,,,0.17,,2013-02-07 00:21:00,
2013-02-06 19:31:00,47.0,43.0,29.95,SE,146,0.0,0.0,86,0.01,,,0.17,,2013-02-07 00:31:00,
2013-02-06 19:42:00,47.0,43.0,29.95,SE,146,0.0,0.0,86,0.01,,,0.17,,2013-02-07 00:42:00,
2013-02-06 19:52:00,46.0,42.0,29.96,SSW,208,0.0,3.0,87,0.01,,,0.17,,2013-02-07 00:52:00,
2013-02-06 20:01:00,46.0,42.0,29.96,SSW,208,0.0,3.0,87,0.01,,,0.17,,2013-02-07 01:01:00,
2013-02-06 20:11:00,46.0,42.0,29.96,SSW,208,0.0,3.0,87,0.01,,,0.17,,2013-02-07 01:11:00,
2013-02-06 20:21:00,45.0,43.0,29.95,East,93,0.0,2.0,91,0.03,,,0.20,,2013-02-07 01:21:00,
2013-02-06 20:31:00,45.0,43.0,29.95,East,93,0.0,2.0,91,0.03,,,0.20,,2013-02-07 01:31:00,
2013-02-06 20:42:00,45.0,43.0,29.95,East,93,0.0,2.0,91,0.03,,,0.20,,2013-02-07 01:42:00,
2013-02-06 20:52:00,44.0,42.0,29.93,East,93,0.0,0.0,93,0.03,,,0.20,,2013-02-07 01:52:00,
2013-02-06 21:01:00,44.0,42.0,29.93,East,93,0.0,0.0,93,0.03,,,0.20,,2013-02-07 02:01:00,
2013-02-06 21:11:00,44.0,42.0,29.93,East,93,0.0,0.0,93,0.03,,,0.20,,2013-02-07 02:11:00,
2013-02-06 21:21:00,44.0,42.0,29.92,NE,37,0.0,2.0,94,0.01,,,0.13,,2013-02-07 02:21:00,
2013-02-06 21:31:00,44.0,42.0,29.92,NE,37,0.0,2.0,94,0.01,,,0.13,,2013-02-07 02:31:00,
2013-02-06 21:42:00,44.0,42.0,29.92,NE,37,0.0,2.0,94,0.01,,,0.13,,2013-02-07 02:42:00,
2013-02-06 21:51:00,44.0,42.0,29.92,NE,37,0.0,2.0,94,0.01,,,0.13,,2013-02-07 02:51:00,
2013-02-06 22:01:00,43.0,42.0,29.91,NE,37,0.0,0.0,95,0.01,,,0.13,,2013-02-07 03:01:00,
2013-02-06 22:11:00,43.0,42.0,29.91,NE,37,0.0,0.0,95,0.01,,,0.13,,2013-02-07 03:11:00,
2013-02-06 22:21:00,43.0,42.0,29.89,NE,37,0.0,0.0,95,0.00,,,0.13,,2013-02-07 03:21:00,
2013-02-06 22:31:00,43.0,42.0,29.89,NE,37,0.0,0.0,95,0.00,,,0.13,,2013-02-07 03:31:00,
2013-02-06 22:42:00,43.0,42.0,29.89,NE,37,0.0,0.0,95,0.00,,,0.13,,2013-02-07 03:42:00,
2013-02-06 22:52:00,43.0,42.0,29.88,NE,37,0.0,0.0,95,0.00,,,0.13,,2013-02-07 03:52:00,
2013-02-06 23:01:00,43.0,42.0,29.88,NE,37,0.0,0.0,95,0.00,,,0.13,,2013-02-07 04:01:00,
2013-02-06 23:11:00,43.0,42.0,29.88,NE,37,0.0,0.0,95,0.00,,,0.13,,2013-02-07 04:11:00,
2013-02-06 23:21:00,42.0,41.0,29.85,NE,37,0.0,2.0,95,0.00,,,0.12,,2013-02-07 04:21:00,
2013-02-06 23:31:00,42.0,41.0,29.85,NE,37,0.0,2.0,95,0.00,,,0.12,,2013-02-07 04:31:00,
2013-02-06 23:42:00,42.0,41.0,29.85,NE,37,0.0,2.0,95,0.00,,,0.12,,2013-02-07 04:42:00,
2013-02-06 23:53:00,42.0,40.0,29.85,NE,37,0.0,0.0,94,0.00,,,0.12,,2013-02-07 04:53:00,